User: anonymous   Login
Location: Lussas
(44.6119°N, 4.4726°E)
Time: 21:37:05
(UTC+00:00)
Language:

Meteor 2-3 Rocket - Orbit

View from above orbital plane
View from above orbital plane
View from above satellite
View from above satellite

Ground track
Ground track

The orbit data is extracted from the following two-line orbital elements,

1 10515U 77117B   21058.48264516  .00000105  00000-0  53262-4 0  9995
2 10515  81.2464  45.6889 0029391  27.0957 333.1740 14.08735130219794
Epoch (UTC): 27 February 2021 11:35:00
Eccentricity: 0.0029391
inclination: 81.2464°
perigee height: 842 km
apogee height: 885 km
right ascension of ascending node: 45.6889°
argument of perigee: 27.0957°
revolutions per day: 14.08735130
mean anomaly at epoch: 333.1740°
orbit number at epoch: 21979

The dashed part of the orbit path shows where the satellite is in the earth's shadow,  

DLR